TimeEST,TemperatureF,Dew PointF,Humidity,Sea Level PressureIn,VisibilityMPH,Wind Direction,Wind SpeedMPH,Gust SpeedMPH,PrecipitationIn,Events,Conditions,WindDirDegrees,DateUTC
12:16 AM,39.2,30.2,70,30.33,6.0,South,4.6,-,N/A,,Haze,190,2011-12-14 05:16:00
12:53 AM,37.9,30.9,76,30.34,6.0,South,4.6,-,N/A,,Haze,190,2011-12-14 05:53:00
1:53 AM,37.9,33.1,83,30.30,5.0,South,4.6,-,N/A,,Haze,170,2011-12-14 06:53:00
2:07 AM,37.4,33.8,87,30.28,5.0,South,4.6,-,N/A,,Haze,170,2011-12-14 07:07:00
2:48 AM,37.4,33.8,87,30.28,5.0,SE,3.5,-,N/A,,Haze,140,2011-12-14 07:48:00
2:53 AM,37.9,33.1,83,30.32,5.0,Calm,Calm,-,N/A,,Haze,0,2011-12-14 07:53:00
3:53 AM,37.9,32.0,79,30.29,5.0,Calm,Calm,-,N/A,,Haze,0,2011-12-14 08:53:00
4:12 AM,37.4,32.0,81,30.27,5.0,SSE,3.5,-,N/A,,Haze,160,2011-12-14 09:12:00
4:40 AM,37.4,33.8,87,30.25,3.0,South,8.1,-,N/A,,Haze,170,2011-12-14 09:40:00
4:50 AM,37.4,33.8,87,30.25,2.5,South,5.8,-,N/A,,Overcast,170,2011-12-14 09:50:00
4:53 AM,37.0,34.0,89,30.27,2.0,SSE,4.6,-,N/A,,Overcast,160,2011-12-14 09:53:00
5:03 AM,37.4,35.6,93,30.26,1.5,South,3.5,-,N/A,,Overcast,170,2011-12-14 10:03:00
5:16 AM,37.4,35.6,93,30.25,1.2,SSE,4.6,-,N/A,,Overcast,150,2011-12-14 10:16:00
5:53 AM,37.0,35.1,93,30.27,0.8,South,3.5,-,0.00,Rain,Light Rain,170,2011-12-14 10:53:00
6:33 AM,37.4,35.6,93,30.22,1.0,SE,5.8,-,0.02,Rain,Light Rain,140,2011-12-14 11:33:00
6:53 AM,37.0,35.1,93,30.24,1.0,SSE,6.9,-,0.02,,Overcast,160,2011-12-14 11:53:00
7:13 AM,37.4,35.6,93,30.21,2.0,SSE,6.9,-,0.00,,Overcast,160,2011-12-14 12:13:00
7:25 AM,37.4,35.6,93,30.20,2.0,South,6.9,-,0.00,,Overcast,170,2011-12-14 12:25:00
7:53 AM,37.9,36.0,93,30.24,2.5,South,4.6,-,0.01,Rain,Light Rain,170,2011-12-14 12:53:00
8:05 AM,37.4,35.6,93,30.20,2.0,SSE,5.8,-,0.01,Rain,Light Rain,150,2011-12-14 13:05:00
8:18 AM,37.4,35.6,93,30.19,2.0,SSE,6.9,-,0.03,Rain,Light Rain,160,2011-12-14 13:18:00
8:53 AM,37.9,36.0,93,30.20,2.5,SSE,10.4,-,0.05,Rain,Light Rain,160,2011-12-14 13:53:00
9:12 AM,37.4,35.6,93,30.20,3.0,South,9.2,-,0.00,,Overcast,180,2011-12-14 14:12:00
9:25 AM,39.2,35.6,87,30.20,2.0,South,5.8,-,0.01,Rain,Light Rain,180,2011-12-14 14:25:00
9:53 AM,39.2,37.4,93,30.18,2.0,SSE,6.9,-,N/A,Rain,Light Rain,150,2011-12-14 14:53:00
10:33 AM,39.2,37.4,93,30.14,3.0,South,9.2,-,0.10,Rain,Light Rain,170,2011-12-14 15:33:00
10:53 AM,39.9,37.9,93,30.14,6.0,South,10.4,-,0.12,Rain,Light Rain,170,2011-12-14 15:53:00
11:53 AM,42.1,39.0,89,30.12,10.0,South,9.2,-,0.01,,Overcast,180,2011-12-14 16:53:00
12:32 PM,42.8,39.2,87,30.07,5.0,South,9.2,-,0.02,Rain,Light Rain,180,2011-12-14 17:32:00
12:50 PM,42.8,41.0,93,30.06,10.0,South,8.1,-,0.04,Rain,Light Rain,170,2011-12-14 17:50:00
12:53 PM,43.0,41.0,93,30.08,10.0,SSE,8.1,-,0.04,Rain,Light Rain,160,2011-12-14 17:53:00
1:53 PM,45.0,42.1,90,29.99,6.0,South,12.7,18.4,0.06,Rain,Light Rain,170,2011-12-14 18:53:00
2:53 PM,46.9,43.0,86,29.94,10.0,South,15.0,23.0,0.01,,Overcast,180,2011-12-14 19:53:00
3:53 PM,46.9,44.1,90,29.94,6.0,SSW,15.0,23.0,N/A,,Overcast,200,2011-12-14 20:53:00
4:53 PM,46.0,44.1,93,29.95,4.0,SSW,9.2,-,N/A,,Overcast,210,2011-12-14 21:53:00
5:17 PM,46.4,44.6,93,29.92,1.5,South,8.1,-,N/A,,Overcast,190,2011-12-14 22:17:00
5:53 PM,46.9,45.0,93,29.92,1.8,SSW,6.9,-,0.01,,Overcast,200,2011-12-14 22:53:00
6:04 PM,46.4,44.6,93,29.90,2.5,SSW,6.9,-,N/A,,Overcast,200,2011-12-14 23:04:00
6:17 PM,46.4,44.6,93,29.89,1.8,South,8.1,-,N/A,,Overcast,190,2011-12-14 23:17:00
6:53 PM,48.9,46.0,90,29.88,3.0,SSW,6.9,-,0.01,,Overcast,200,2011-12-14 23:53:00
7:53 PM,51.1,48.0,89,29.90,10.0,SW,11.5,18.4,N/A,,Overcast,220,2011-12-15 00:53:00
8:53 PM,52.0,48.9,89,29.86,5.0,SSW,10.4,-,0.03,Rain,Light Rain,210,2011-12-15 01:53:00
9:18 PM,51.8,48.2,88,29.83,7.0,SW,12.7,17.3,0.03,Rain,Light Rain,220,2011-12-15 02:18:00
9:53 PM,53.1,50.0,89,29.82,10.0,SSW,10.4,-,0.05,,Overcast,210,2011-12-15 02:53:00
10:53 PM,54.0,50.0,86,29.79,10.0,SSW,15.0,20.7,0.00,,Overcast,210,2011-12-15 03:53:00
11:53 PM,54.0,51.1,90,29.75,9.0,SSW,11.5,-,0.01,Rain,Light Rain,210,2011-12-15 04:53:00